Location: *
(49.9853°N, 3.5569°E)
Time: 07:14:25
(UTC+00:00)

Cosmos 1626 Rocket - Pass Details

Date: 22 September 2019
Orbit: 603 x 631 km, 82.5° (Epoch: 22 October)

Event Time Altitude Azimuth Distance (km) Brightness Sun altitude
Rises 19:59:20 0° 347° (NNW) 2,871 7.6 -21.6°
Reaches altitude 10° 20:01:34 10° 345° (NNW) 1,961 6.7 -21.9°
Maximum altitude 20:05:52 68° 263° (W) 655 3.7 -22.5°
Enters shadow 20:07:09 43° 197° (SSW) 858 4.1 -22.7°
